CW7313 Drosia of Attica GR current weather conditions

sailwx.info

Wind from 107

Air temperature 25.6° C
Dewpoint 14.3° C

Last reported at 2020-Aug-12 05:35 UTC.
Time now 2020-Aug-12 06:33 UTC

Location: N 38°07' E 023°55'.
View on Google Maps.

See reports from other nearby stations

  
Tides and Currents Weather Stations Pressure Air Temp Water Temp Dewpoint Dewpoint Depression Visibility Wind Speed Wind Dir Waves Ship Positions
date/time (UTC)wind fromknots sea level pressurealtimeterstation pressurevisibilityair tempwater tempwave heightnotes
2020-Aug-12 05:35 107 25.6
2020-Aug-12 05:05 080 24.4
2020-Aug-12 04:36 080 21.7
2020-Aug-12 04:05 080 20.6
2020-Aug-12 03:35 080 20.6
2020-Aug-12 03:05 080 20.6
2020-Aug-12 02:35 079 20.6
2020-Aug-12 02:05 080 20.6
2020-Aug-12 01:35 079 21.1
2020-Aug-12 01:05 080 21.1
2020-Aug-12 00:36 080 21.1
2020-Aug-12 00:05 080 21.7
2020-Aug-11 23:35 080 21.7
2020-Aug-11 23:05 080 22.2
2020-Aug-11 22:35 080 22.2
2020-Aug-11 22:05 080 22.2
2020-Aug-11 21:35 080 22.8
2020-Aug-11 21:05 079 22.8
2020-Aug-11 20:35 080 22.8
2020-Aug-11 20:05 080 22.8
2020-Aug-11 19:36 080 22.8
2020-Aug-11 19:05 079 23.3
2020-Aug-11 18:35 080 23.9
2020-Aug-11 18:05 080 24.4
2020-Aug-11 17:35 080 25.6
2020-Aug-11 17:05 080 27.2
2020-Aug-11 16:35 074 27.8
2020-Aug-11 16:05 120 28.9
2020-Aug-11 15:35 121 29.4
2020-Aug-11 15:05 143 29.4
2020-Aug-11 14:36 061 30.0
2020-Aug-11 14:05 069 30.0
2020-Aug-11 13:35 057 30.0
2020-Aug-11 13:05 048 30.0
2020-Aug-11 12:35 103 30.0
2020-Aug-11 12:05 059 30.0
2020-Aug-11 11:35 126 30.0
2020-Aug-11 11:05 179 29.4
2020-Aug-11 10:35 153 29.4
2020-Aug-11 10:05 060 29.4
2020-Aug-11 09:35 123 28.9
2020-Aug-11 09:05 093 28.3
2020-Aug-11 08:35 065 27.8
2020-Aug-11 08:05 053 27.2
2020-Aug-11 07:35 102 27.2
2020-Aug-11 07:05 073 26.1
2020-Aug-11 06:35 090 25.6
2020-Aug-11 06:05 088 25.0
2020-Aug-11 05:36 108 23.9
2020-Aug-11 05:05 108 22.2
2020-Aug-11 04:35 108 20.6
2020-Aug-11 04:05 107 19.4
2020-Aug-11 03:35 108 19.4
2020-Aug-11 03:05 108 19.4
2020-Aug-11 02:05 107 20.0
2020-Aug-11 01:35 108 20.0
2020-Aug-11 01:05 108 20.6
2020-Aug-11 00:35 107 20.0
2020-Aug-11 00:05 108 20.6
2020-Aug-10 23:35 108 21.7
2020-Aug-10 23:05 105 22.2
2020-Aug-10 22:35 080 21.7
2020-Aug-10 22:05 081 21.7
2020-Aug-10 21:35 081 22.2
2020-Aug-10 21:05 082 22.2
2020-Aug-10 20:35 081 22.2
2020-Aug-10 20:05 081 22.8
2020-Aug-10 19:36 080 23.9
2020-Aug-10 19:05 081 23.9
2020-Aug-10 18:35 080 24.4
2020-Aug-10 18:05 080 24.4
2020-Aug-10 17:35 077 25.0
2020-Aug-10 17:05 087 26.1
2020-Aug-10 16:35 076 26.7
2020-Aug-10 16:05 063 27.2
2020-Aug-10 15:36 097 27.2
2020-Aug-10 15:06 095 27.8
2020-Aug-10 14:35 055 27.8
2020-Aug-10 14:05 089 27.8
2020-Aug-10 13:35 115 27.8
2020-Aug-10 13:05 117 28.3
2020-Aug-10 12:35 082 28.3
2020-Aug-10 12:05 124 28.3
2020-Aug-10 11:35 096 28.3
2020-Aug-10 11:05 086 27.8
2020-Aug-10 10:35 091 27.2
2020-Aug-10 10:05 086 26.1
2020-Aug-10 09:35 053 26.1
2020-Aug-10 09:05 106 26.7
2020-Aug-10 08:35 082 26.7
2020-Aug-10 08:05 135 26.1
2020-Aug-10 07:35 103 25.6
2020-Aug-10 07:05 055 25.6
2020-Aug-10 06:35 084 25.0
2020-Aug-10 06:05 094 24.4